{"data":{"norad_id":64895,"epoch":"2026-05-25T03:07:01.435872Z","epoch_age_seconds":53888,"freshness":"FRESH","line1":"1 64895U 25155V   26145.12987773  .00008841  00000+0  31580-3 0  9992","line2":"2 64895  97.4561 113.5747 0005088 255.0464 105.0213 15.29070076 77228","mean_motion":15.29070076,"eccentricity":0.0005088,"inclination_deg":97.4561,"raan_deg":113.5747,"arg_perigee_deg":255.0464,"mean_anomaly_deg":105.0213,"bstar":0.0003158,"rev_number":7722,"period_min":94.174885938975,"perigee_km":475.10219304829,"apogee_km":482.07959935546,"semimajor_km":6856.7278962019,"source":"CELESTRAK","updated_at":"2026-05-25T13:38:04.875304Z"}}